Location: Godzisko
(49.9648°N, 19.4576°E)
Time: 01:57:43
(UTC+00:00)

Cosmos 1833 Rocket - Pass Details

Date: 20 April 2021
Orbit: 831 x 841 km, 71.0° (Epoch: 07 May)

Event Time Altitude Azimuth Distance (km) Brightness Sun altitude
Rises 01:20:51 0° 323° (NW) 3,406 6.0 -19.3°
Reaches altitude 10° 01:23:35 10° 313° (NW) 2,468 5.1 -19.0°
Maximum altitude 01:28:19 28° 256° (WSW) 1,532 3.6 -18.5°
Enters shadow 01:28:28 28° 253° (WSW) 1,533 3.6 -18.4°
